Location: Presov
(49.0000°N, 21.2500°E)
Time: 21:51:39
(UTC+02:00)

Transit 2A - All Passes

Search period start: 19 April 2021 00:00
Search period end: 29 April 2021 00:00
Orbit: 602 x 957 km, 66.7° (Epoch: 18 April)

Date Brightness Start Highest point End Pass type
(mag) Time Alt. Az. Time Alt. Az. Time Alt. Az.
19 Apr - 07:02:32 10° SSE 07:06:06 21° ESE 07:09:31 10° ENE daylight
19 Apr - 08:44:18 10° SW 08:48:54 57° NW 08:53:16 10° NNE daylight
19 Apr - 10:30:31 10° WNW 10:32:58 14° NNW 10:35:23 10° N daylight
19 Apr - 14:01:25 10° N 14:03:30 13° NNE 14:05:36 10° NE daylight
19 Apr - 15:43:23 10° NNW 15:47:40 49° NE 15:52:09 10° SE daylight
19 Apr - 17:26:57 10° WNW 17:30:33 24° WSW 17:34:18 10° SSW daylight
20 Apr - 06:29:32 10° SE 06:32:07 15° ESE 06:34:36 10° ENE daylight
20 Apr - 08:09:58 10° SW 08:14:42 81° NW 08:19:08 10° NE daylight
20 Apr - 09:55:25 10° WNW 09:58:30 18° NNW 10:01:30 10° N daylight
20 Apr - 13:27:46 10° N 13:28:57 11° NNE 13:30:08 10° NE daylight
20 Apr - 15:09:20 10° NNW 15:13:23 36° NE 15:17:36 10° ESE daylight
20 Apr - 16:52:27 10° NW 16:56:30 35° WSW 17:00:46 10° S daylight
21 Apr - 07:35:49 10° SSW 07:40:32 71° ESE 07:44:57 10° NE daylight
21 Apr - 09:20:30 10° W 09:24:04 22° NW 09:27:33 10° NNE daylight
21 Apr - 14:35:17 10° NNW 14:39:03 27° NE 14:42:56 10° E daylight
21 Apr - 16:18:06 10° NW 16:22:24 52° WSW 16:26:57 10° SSE daylight
22 Apr - 07:01:51 10° SSW 07:06:24 48° ESE 07:10:40 10° NE daylight
22 Apr - 08:45:42 10° WSW 08:49:42 29° NW 08:53:33 10° NNE daylight
22 Apr - 14:01:18 10° NNW 14:04:40 21° NE 14:08:08 10° E daylight
22 Apr - 15:43:51 10° NW 15:48:16 76° WSW 15:52:56 10° SSE daylight
22 Apr - 17:30:02 10° W 17:30:40 10° WSW 17:31:19 10° WSW daylight
23 Apr - 06:28:06 10° S 06:32:18 33° ESE 06:36:18 10° NE daylight
23 Apr - 08:11:04 10° WSW 08:15:23 38° NW 08:19:30 10° NNE daylight
23 Apr - 09:58:19 10° NW 09:59:45 11° NNW 10:01:11 10° N daylight
23 Apr - 13:27:22 10° N 13:30:14 17° NNE 13:33:10 10° ENE daylight
23 Apr - 15:09:40 10° NNW 15:14:05 76° NE 15:18:46 10° SE daylight
23 Apr - 16:54:01 10° WNW 16:56:43 16° WSW 16:59:29 10° SW daylight
24 Apr - 05:54:36 10° SSE 05:58:16 23° ESE 06:01:46 10° ENE daylight
24 Apr - 07:36:34 10° SW 07:41:07 53° NW 07:45:25 10° NNE daylight
24 Apr - 09:22:57 10° WNW 09:25:13 14° NNW 09:27:28 10° N daylight
24 Apr - 12:53:30 10° N 12:55:45 14° NNE 12:58:02 10° ENE daylight
24 Apr - 14:35:32 10° NNW 14:39:52 53° NE 14:44:25 10° SE daylight
24 Apr - 16:19:11 10° WNW 16:22:42 23° WSW 16:26:24 10° SSW daylight
25 Apr - 05:21:31 10° SE 05:24:16 16° ESE 05:26:56 10° ENE daylight
25 Apr - 07:02:13 10° SW 07:06:52 76° NW 07:11:18 10° NNE daylight
25 Apr - 08:47:49 10° WNW 08:50:44 17° NNW 08:53:36 10° N daylight
25 Apr - 12:19:47 10° N 12:21:13 11° NNE 12:22:39 10° NE daylight
25 Apr - 14:01:27 10° NNW 14:05:35 38° NE 14:09:55 10° ESE daylight
25 Apr - 15:44:39 10° NW 15:48:40 33° WSW 15:52:54 10° S daylight
26 Apr - 04:49:47 10° ESE 04:50:18 10° ESE 04:50:50 10° E visible
26 Apr - 06:28:03 10° SSW 06:32:42 76° ESE 06:37:07 10° NE daylight
26 Apr - 08:12:51 10° W 08:16:18 21° NW 08:19:40 10° NNE daylight
26 Apr - 13:27:25 10° NNW 13:31:16 29° NE 13:35:17 10° ESE daylight
26 Apr - 15:10:17 10° NW 15:14:34 48° WSW 15:19:08 10° SSE daylight
27 Apr - 05:54:02 10° SSW 05:58:34 51° ESE 06:02:51 10° NE daylight
27 Apr - 07:38:02 10° W 07:41:55 27° NW 07:45:40 10° NNE daylight
27 Apr - 12:53:25 10° NNW 12:56:54 22° NE 13:00:29 10° E daylight
27 Apr - 14:36:01 10° NW 14:40:26 71° WSW 14:45:10 10° SSE daylight
28 Apr - 05:20:14 10° S 05:24:28 35° ESE 05:28:30 10° NE daylight
28 Apr - 07:03:22 10° WSW 07:07:35 36° NW 07:11:39 10° NNE daylight
28 Apr - 08:50:51 10° NW 08:52:01 11° NNW 08:53:10 10° N daylight
28 Apr - 12:19:28 10° N 12:22:28 18° NNE 12:25:33 10° ENE daylight
28 Apr - 14:01:49 10° NW 14:06:16 81° NE 14:11:00 10° SE daylight
28 Apr - 15:46:20 10° WNW 15:48:52 15° WSW 15:51:28 10° SW daylight
